Index of /20260424/WXO-DD/model_gdps/15km/12/198
Name Last modified Size Description
Parent Directory -
20260424T12Z_MSC_GDPS_AbsoluteVorticity_IsbL-0200_LatLon0.15_PT198H.grib2 2026-04-24 16:36 1.2M
20260424T12Z_MSC_GDPS_AbsoluteVorticity_IsbL-0250_LatLon0.15_PT198H.grib2 2026-04-24 16:36 1.3M
20260424T12Z_MSC_GDPS_AbsoluteVorticity_IsbL-0500_LatLon0.15_PT198H.grib2 2026-04-24 16:36 1.5M
20260424T12Z_MSC_GDPS_AbsoluteVorticity_IsbL-0700_LatLon0.15_PT198H.grib2 2026-04-24 16:36 1.3M
20260424T12Z_MSC_GDPS_AbsoluteVorticity_IsbL-0850_LatLon0.15_PT198H.grib2 2026-04-24 16:36 1.6M
20260424T12Z_MSC_GDPS_AirTemp-Max_AGL-2m_LatLon0.15_PT198H.grib2 2026-04-24 16:36 747K
20260424T12Z_MSC_GDPS_AirTemp-Min_AGL-2m_LatLon0.15_PT198H.grib2 2026-04-24 16:36 793K
20260424T12Z_MSC_GDPS_AirTemp_AGL-120m_LatLon0.15_PT198H.grib2 2026-04-24 16:36 793K
20260424T12Z_MSC_GDPS_AirTemp_AGL-2m_LatLon0.15_PT198H.grib2 2026-04-24 16:36 1.0M
20260424T12Z_MSC_GDPS_AirTemp_AGL-40m_LatLon0.15_PT198H.grib2 2026-04-24 16:36 814K
20260424T12Z_MSC_GDPS_AirTemp_AGL-80m_LatLon0.15_PT198H.grib2 2026-04-24 16:36 801K
20260424T12Z_MSC_GDPS_AirTemp_IsbL-0001_LatLon0.15_PT198H.grib2 2026-04-24 16:36 713K
20260424T12Z_MSC_GDPS_AirTemp_IsbL-0005_LatLon0.15_PT198H.grib2 2026-04-24 16:36 683K
20260424T12Z_MSC_GDPS_AirTemp_IsbL-0010_LatLon0.15_PT198H.grib2 2026-04-24 16:36 754K
20260424T12Z_MSC_GDPS_AirTemp_IsbL-0020_LatLon0.15_PT198H.grib2 2026-04-24 16:36 783K
20260424T12Z_MSC_GDPS_AirTemp_IsbL-0030_LatLon0.15_PT198H.grib2 2026-04-24 16:36 749K
20260424T12Z_MSC_GDPS_AirTemp_IsbL-0050_LatLon0.15_PT198H.grib2 2026-04-24 16:36 802K
20260424T12Z_MSC_GDPS_AirTemp_IsbL-0100_LatLon0.15_PT198H.grib2 2026-04-24 16:36 959K
20260424T12Z_MSC_GDPS_AirTemp_IsbL-0150_LatLon0.15_PT198H.grib2 2026-04-24 16:36 967K
20260424T12Z_MSC_GDPS_AirTemp_IsbL-0175_LatLon0.15_PT198H.grib2 2026-04-24 16:36 959K
20260424T12Z_MSC_GDPS_AirTemp_IsbL-0200_LatLon0.15_PT198H.grib2 2026-04-24 16:36 1.0M
20260424T12Z_MSC_GDPS_AirTemp_IsbL-0225_LatLon0.15_PT198H.grib2 2026-04-24 16:36 1.0M
20260424T12Z_MSC_GDPS_AirTemp_IsbL-0250_LatLon0.15_PT198H.grib2 2026-04-24 16:36 1.0M
20260424T12Z_MSC_GDPS_AirTemp_IsbL-0275_LatLon0.15_PT198H.grib2 2026-04-24 16:36 1.0M
20260424T12Z_MSC_GDPS_AirTemp_IsbL-0300_LatLon0.15_PT198H.grib2 2026-04-24 16:36 945K
20260424T12Z_MSC_GDPS_AirTemp_IsbL-0350_LatLon0.15_PT198H.grib2 2026-04-24 16:36 925K
20260424T12Z_MSC_GDPS_AirTemp_IsbL-0400_LatLon0.15_PT198H.grib2 2026-04-24 16:36 941K
20260424T12Z_MSC_GDPS_AirTemp_IsbL-0450_LatLon0.15_PT198H.grib2 2026-04-24 16:36 743K
20260424T12Z_MSC_GDPS_AirTemp_IsbL-0500_LatLon0.15_PT198H.grib2 2026-04-24 16:36 769K
20260424T12Z_MSC_GDPS_AirTemp_IsbL-0550_LatLon0.15_PT198H.grib2 2026-04-24 16:36 809K
20260424T12Z_MSC_GDPS_AirTemp_IsbL-0600_LatLon0.15_PT198H.grib2 2026-04-24 16:36 894K
20260424T12Z_MSC_GDPS_AirTemp_IsbL-0650_LatLon0.15_PT198H.grib2 2026-04-24 16:36 924K
20260424T12Z_MSC_GDPS_AirTemp_IsbL-0700_LatLon0.15_PT198H.grib2 2026-04-24 16:36 960K
20260424T12Z_MSC_GDPS_AirTemp_IsbL-0750_LatLon0.15_PT198H.grib2 2026-04-24 16:36 1.0M
20260424T12Z_MSC_GDPS_AirTemp_IsbL-0800_LatLon0.15_PT198H.grib2 2026-04-24 16:36 1.1M
20260424T12Z_MSC_GDPS_AirTemp_IsbL-0850_LatLon0.15_PT198H.grib2 2026-04-24 16:36 1.1M
20260424T12Z_MSC_GDPS_AirTemp_IsbL-0875_LatLon0.15_PT198H.grib2 2026-04-24 16:36 1.2M
20260424T12Z_MSC_GDPS_AirTemp_IsbL-0900_LatLon0.15_PT198H.grib2 2026-04-24 16:36 1.1M
20260424T12Z_MSC_GDPS_AirTemp_IsbL-0925_LatLon0.15_PT198H.grib2 2026-04-24 16:36 1.1M
20260424T12Z_MSC_GDPS_AirTemp_IsbL-0950_LatLon0.15_PT198H.grib2 2026-04-24 16:36 1.1M
20260424T12Z_MSC_GDPS_AirTemp_IsbL-0970_LatLon0.15_PT198H.grib2 2026-04-24 16:36 1.2M
20260424T12Z_MSC_GDPS_AirTemp_IsbL-0985_LatLon0.15_PT198H.grib2 2026-04-24 16:36 1.1M
20260424T12Z_MSC_GDPS_AirTemp_IsbL-1000_LatLon0.15_PT198H.grib2 2026-04-24 16:36 1.1M
20260424T12Z_MSC_GDPS_AirTemp_IsbL-1015_LatLon0.15_PT198H.grib2 2026-04-24 16:36 1.1M
20260424T12Z_MSC_GDPS_Albedo_Sfc_LatLon0.15_PT198H.grib2 2026-04-24 16:36 245K
20260424T12Z_MSC_GDPS_CAPE_Sfc_LatLon0.15_PT198H.grib2 2026-04-24 16:36 3.7M
20260424T12Z_MSC_GDPS_CIN_Sfc_LatLon0.15_PT198H.grib2 2026-04-24 16:36 2.8M
20260424T12Z_MSC_GDPS_CloudWater_EAtm_LatLon0.15_PT198H.grib2 2026-04-24 16:36 539K
20260424T12Z_MSC_GDPS_ConvectivePrecip-Accum_Sfc_LatLon0.15_PT198H.grib2 2026-04-24 16:36 3.7M
20260424T12Z_MSC_GDPS_DewPointDepression_AGL-2m_LatLon0.15_PT198H.grib2 2026-04-24 16:36 764K
20260424T12Z_MSC_GDPS_DewPointDepression_IsbL-0010_LatLon0.15_PT198H.grib2 2026-04-24 16:36 55K
20260424T12Z_MSC_GDPS_DewPointDepression_IsbL-0020_LatLon0.15_PT198H.grib2 2026-04-24 16:36 60K
20260424T12Z_MSC_GDPS_DewPointDepression_IsbL-0030_LatLon0.15_PT198H.grib2 2026-04-24 16:36 80K
20260424T12Z_MSC_GDPS_DewPointDepression_IsbL-0050_LatLon0.15_PT198H.grib2 2026-04-24 16:36 372K
20260424T12Z_MSC_GDPS_DewPointDepression_IsbL-0100_LatLon0.15_PT198H.grib2 2026-04-24 16:36 395K
20260424T12Z_MSC_GDPS_DewPointDepression_IsbL-0150_LatLon0.15_PT198H.grib2 2026-04-24 16:36 456K
20260424T12Z_MSC_GDPS_DewPointDepression_IsbL-0175_LatLon0.15_PT198H.grib2 2026-04-24 16:36 577K
20260424T12Z_MSC_GDPS_DewPointDepression_IsbL-0200_LatLon0.15_PT198H.grib2 2026-04-24 16:36 689K
20260424T12Z_MSC_GDPS_DewPointDepression_IsbL-0225_LatLon0.15_PT198H.grib2 2026-04-24 16:36 791K
20260424T12Z_MSC_GDPS_DewPointDepression_IsbL-0250_LatLon0.15_PT198H.grib2 2026-04-24 16:36 867K
20260424T12Z_MSC_GDPS_DewPointDepression_IsbL-0275_LatLon0.15_PT198H.grib2 2026-04-24 16:36 871K
20260424T12Z_MSC_GDPS_DewPointDepression_IsbL-0300_LatLon0.15_PT198H.grib2 2026-04-24 16:36 907K
20260424T12Z_MSC_GDPS_DewPointDepression_IsbL-0350_LatLon0.15_PT198H.grib2 2026-04-24 16:36 937K
20260424T12Z_MSC_GDPS_DewPointDepression_IsbL-0400_LatLon0.15_PT198H.grib2 2026-04-24 16:36 970K
20260424T12Z_MSC_GDPS_DewPointDepression_IsbL-0450_LatLon0.15_PT198H.grib2 2026-04-24 16:36 1.0M
20260424T12Z_MSC_GDPS_DewPointDepression_IsbL-0500_LatLon0.15_PT198H.grib2 2026-04-24 16:36 1.0M
20260424T12Z_MSC_GDPS_DewPointDepression_IsbL-0550_LatLon0.15_PT198H.grib2 2026-04-24 16:36 1.0M
20260424T12Z_MSC_GDPS_DewPointDepression_IsbL-0600_LatLon0.15_PT198H.grib2 2026-04-24 16:36 1.0M
20260424T12Z_MSC_GDPS_DewPointDepression_IsbL-0650_LatLon0.15_PT198H.grib2 2026-04-24 16:36 1.1M
20260424T12Z_MSC_GDPS_DewPointDepression_IsbL-0700_LatLon0.15_PT198H.grib2 2026-04-24 16:36 1.1M
20260424T12Z_MSC_GDPS_DewPointDepression_IsbL-0750_LatLon0.15_PT198H.grib2 2026-04-24 16:36 1.1M
20260424T12Z_MSC_GDPS_DewPointDepression_IsbL-0800_LatLon0.15_PT198H.grib2 2026-04-24 16:36 1.2M
20260424T12Z_MSC_GDPS_DewPointDepression_IsbL-0850_LatLon0.15_PT198H.grib2 2026-04-24 16:36 1.2M
20260424T12Z_MSC_GDPS_DewPointDepression_IsbL-0875_LatLon0.15_PT198H.grib2 2026-04-24 16:36 1.1M
20260424T12Z_MSC_GDPS_DewPointDepression_IsbL-0900_LatLon0.15_PT198H.grib2 2026-04-24 16:36 1.1M
20260424T12Z_MSC_GDPS_DewPointDepression_IsbL-0925_LatLon0.15_PT198H.grib2 2026-04-24 16:36 1.0M
20260424T12Z_MSC_GDPS_DewPointDepression_IsbL-0950_LatLon0.15_PT198H.grib2 2026-04-24 16:36 1.0M
20260424T12Z_MSC_GDPS_DewPointDepression_IsbL-0970_LatLon0.15_PT198H.grib2 2026-04-24 16:36 1.0M
20260424T12Z_MSC_GDPS_DewPointDepression_IsbL-0985_LatLon0.15_PT198H.grib2 2026-04-24 16:36 1.0M
20260424T12Z_MSC_GDPS_DewPointDepression_IsbL-1000_LatLon0.15_PT198H.grib2 2026-04-24 16:36 1.0M
20260424T12Z_MSC_GDPS_DewPointDepression_IsbL-1015_LatLon0.15_PT198H.grib2 2026-04-24 16:36 919K
20260424T12Z_MSC_GDPS_DewPoint_AGL-2m_LatLon0.15_PT198H.grib2 2026-04-24 16:36 612K
20260424T12Z_MSC_GDPS_DownwardLongwaveRadiationFlux-Accum_Sfc_LatLon0.15_PT198H.grib2 2026-04-24 16:36 706K
20260424T12Z_MSC_GDPS_DownwardShortwaveRadiationFlux-Accum_NTAtm_LatLon0.15_PT198H.grib2 2026-04-24 16:36 258K
20260424T12Z_MSC_GDPS_DownwardShortwaveRadiationFlux-Accum_Sfc_LatLon0.15_PT198H.grib2 2026-04-24 16:36 869K
20260424T12Z_MSC_GDPS_FreezingRain-Accum12h_Sfc_LatLon0.15_PT198H.grib2 2026-04-24 16:36 117K
20260424T12Z_MSC_GDPS_FreezingRain-Accum24h_Sfc_LatLon0.15_PT198H.grib2 2026-04-24 16:36 160K
20260424T12Z_MSC_GDPS_FreezingRain-Accum6h_Sfc_LatLon0.15_PT198H.grib2 2026-04-24 16:36 92K
20260424T12Z_MSC_GDPS_FreezingRain-Accum_Sfc_LatLon0.15_PT198H.grib2 2026-04-24 16:36 565K
20260424T12Z_MSC_GDPS_GeopotentialHeight_IsbL-0001_LatLon0.15_PT198H.grib2 2026-04-24 16:36 435K
20260424T12Z_MSC_GDPS_GeopotentialHeight_IsbL-0005_LatLon0.15_PT198H.grib2 2026-04-24 16:36 496K
20260424T12Z_MSC_GDPS_GeopotentialHeight_IsbL-0010_LatLon0.15_PT198H.grib2 2026-04-24 16:36 487K
20260424T12Z_MSC_GDPS_GeopotentialHeight_IsbL-0020_LatLon0.15_PT198H.grib2 2026-04-24 16:36 414K
20260424T12Z_MSC_GDPS_GeopotentialHeight_IsbL-0030_LatLon0.15_PT198H.grib2 2026-04-24 16:36 569K
20260424T12Z_MSC_GDPS_GeopotentialHeight_IsbL-0050_LatLon0.15_PT198H.grib2 2026-04-24 16:36 564K
20260424T12Z_MSC_GDPS_GeopotentialHeight_IsbL-0100_LatLon0.15_PT198H.grib2 2026-04-24 16:36 610K
20260424T12Z_MSC_GDPS_GeopotentialHeight_IsbL-0150_LatLon0.15_PT198H.grib2 2026-04-24 16:36 631K
20260424T12Z_MSC_GDPS_GeopotentialHeight_IsbL-0175_LatLon0.15_PT198H.grib2 2026-04-24 16:36 636K
20260424T12Z_MSC_GDPS_GeopotentialHeight_IsbL-0200_LatLon0.15_PT198H.grib2 2026-04-24 16:36 642K
20260424T12Z_MSC_GDPS_GeopotentialHeight_IsbL-0225_LatLon0.15_PT198H.grib2 2026-04-24 16:36 640K
20260424T12Z_MSC_GDPS_GeopotentialHeight_IsbL-0250_LatLon0.15_PT198H.grib2 2026-04-24 16:36 644K
20260424T12Z_MSC_GDPS_GeopotentialHeight_IsbL-0275_LatLon0.15_PT198H.grib2 2026-04-24 16:36 646K
20260424T12Z_MSC_GDPS_GeopotentialHeight_IsbL-0300_LatLon0.15_PT198H.grib2 2026-04-24 16:36 637K
20260424T12Z_MSC_GDPS_GeopotentialHeight_IsbL-0350_LatLon0.15_PT198H.grib2 2026-04-24 16:36 631K
20260424T12Z_MSC_GDPS_GeopotentialHeight_IsbL-0400_LatLon0.15_PT198H.grib2 2026-04-24 16:36 625K
20260424T12Z_MSC_GDPS_GeopotentialHeight_IsbL-0450_LatLon0.15_PT198H.grib2 2026-04-24 16:36 616K
20260424T12Z_MSC_GDPS_GeopotentialHeight_IsbL-0500_LatLon0.15_PT198H.grib2 2026-04-24 16:36 538K
20260424T12Z_MSC_GDPS_GeopotentialHeight_IsbL-0550_LatLon0.15_PT198H.grib2 2026-04-24 16:36 532K
20260424T12Z_MSC_GDPS_GeopotentialHeight_IsbL-0600_LatLon0.15_PT198H.grib2 2026-04-24 16:36 696K
20260424T12Z_MSC_GDPS_GeopotentialHeight_IsbL-0650_LatLon0.15_PT198H.grib2 2026-04-24 16:36 693K
20260424T12Z_MSC_GDPS_GeopotentialHeight_IsbL-0700_LatLon0.15_PT198H.grib2 2026-04-24 16:36 690K
20260424T12Z_MSC_GDPS_GeopotentialHeight_IsbL-0750_LatLon0.15_PT198H.grib2 2026-04-24 16:36 698K
20260424T12Z_MSC_GDPS_GeopotentialHeight_IsbL-0800_LatLon0.15_PT198H.grib2 2026-04-24 16:36 707K
20260424T12Z_MSC_GDPS_GeopotentialHeight_IsbL-0850_LatLon0.15_PT198H.grib2 2026-04-24 16:36 711K
20260424T12Z_MSC_GDPS_GeopotentialHeight_IsbL-0875_LatLon0.15_PT198H.grib2 2026-04-24 16:36 716K
20260424T12Z_MSC_GDPS_GeopotentialHeight_IsbL-0900_LatLon0.15_PT198H.grib2 2026-04-24 16:36 724K
20260424T12Z_MSC_GDPS_GeopotentialHeight_IsbL-0925_LatLon0.15_PT198H.grib2 2026-04-24 16:36 732K
20260424T12Z_MSC_GDPS_GeopotentialHeight_IsbL-0950_LatLon0.15_PT198H.grib2 2026-04-24 16:36 741K
20260424T12Z_MSC_GDPS_GeopotentialHeight_IsbL-0970_LatLon0.15_PT198H.grib2 2026-04-24 16:36 751K
20260424T12Z_MSC_GDPS_GeopotentialHeight_IsbL-0985_LatLon0.15_PT198H.grib2 2026-04-24 16:36 768K
20260424T12Z_MSC_GDPS_GeopotentialHeight_IsbL-1000_LatLon0.15_PT198H.grib2 2026-04-24 16:36 790K
20260424T12Z_MSC_GDPS_GeopotentialHeight_IsbL-1015_LatLon0.15_PT198H.grib2 2026-04-24 16:36 814K
20260424T12Z_MSC_GDPS_Humidex_Sfc_LatLon0.15_PT198H.grib2 2026-04-24 16:36 5.3M
20260424T12Z_MSC_GDPS_IcePellets-Accum12h_Sfc_LatLon0.15_PT198H.grib2 2026-04-24 16:36 21K
20260424T12Z_MSC_GDPS_IcePellets-Accum24h_Sfc_LatLon0.15_PT198H.grib2 2026-04-24 16:36 28K
20260424T12Z_MSC_GDPS_IcePellets-Accum6h_Sfc_LatLon0.15_PT198H.grib2 2026-04-24 16:36 12K
20260424T12Z_MSC_GDPS_IcePellets-Accum_Sfc_LatLon0.15_PT198H.grib2 2026-04-24 16:36 207K
20260424T12Z_MSC_GDPS_KIndex_Sfc_LatLon0.15_PT198H.grib2 2026-04-24 16:36 6.5M
20260424T12Z_MSC_GDPS_LatentHeatNetFlux_Sfc_LatLon0.15_PT198H.grib2 2026-04-24 16:36 685K
20260424T12Z_MSC_GDPS_LiftedIndex-MU-VT_IsbL-0500_LatLon0.15_PT198H.grib2 2026-04-24 16:36 5.4M
20260424T12Z_MSC_GDPS_NetLongwaveRadiationFlux-Accum_Sfc_LatLon0.15_PT198H.grib2 2026-04-24 16:36 888K
20260424T12Z_MSC_GDPS_NetShortwaveRadiationFlux-Accum_Sfc_LatLon0.15_PT198H.grib2 2026-04-24 16:36 868K
20260424T12Z_MSC_GDPS_O3MixingRatio_LatLon0.15_PT198H.grib2 2026-04-24 16:51 1.9M
20260424T12Z_MSC_GDPS_O3_EAtm_LatLon0.15_PT198H.grib2 2026-04-24 16:51 2.4M
20260424T12Z_MSC_GDPS_PlanetaryBoundaryLayerHeight_Sfc_LatLon0.15_PT198H.grib2 2026-04-24 16:36 2.4M
20260424T12Z_MSC_GDPS_Precip-Accum12h_Sfc_LatLon0.15_PT198H.grib2 2026-04-24 16:36 4.0M
20260424T12Z_MSC_GDPS_Precip-Accum24h_Sfc_LatLon0.15_PT198H.grib2 2026-04-24 16:36 4.5M
20260424T12Z_MSC_GDPS_Precip-Accum6h_Sfc_LatLon0.15_PT198H.grib2 2026-04-24 16:36 3.6M
20260424T12Z_MSC_GDPS_Precip-Accum_Sfc_LatLon0.15_PT198H.grib2 2026-04-24 16:36 5.4M
20260424T12Z_MSC_GDPS_PrecipRate_Sfc_LatLon0.15_PT198H.grib2 2026-04-24 16:36 2.9M
20260424T12Z_MSC_GDPS_PrecipType-Instant_Sfc_LatLon0.15_PT198H.grib2 2026-04-24 16:36 1.6M
20260424T12Z_MSC_GDPS_Pressure_MSL_LatLon0.15_PT198H.grib2 2026-04-24 16:36 729K
20260424T12Z_MSC_GDPS_Pressure_PVU-1.5_LatLon0.15_PT198H.grib2 2026-04-24 16:36 5.8M
20260424T12Z_MSC_GDPS_Pressure_PVU-1_LatLon0.15_PT198H.grib2 2026-04-24 16:36 6.0M
20260424T12Z_MSC_GDPS_Pressure_PVU-2_LatLon0.15_PT198H.grib2 2026-04-24 16:36 5.6M
20260424T12Z_MSC_GDPS_Pressure_Sfc_LatLon0.15_PT198H.grib2 2026-04-24 16:36 1.1M
20260424T12Z_MSC_GDPS_RadiativeTemp_Sfc_LatLon0.15_PT198H.grib2 2026-04-24 16:36 494K
20260424T12Z_MSC_GDPS_Rain-Accum12h_Sfc_LatLon0.15_PT198H.grib2 2026-04-24 16:36 2.7M
20260424T12Z_MSC_GDPS_Rain-Accum24h_Sfc_LatLon0.15_PT198H.grib2 2026-04-24 16:36 3.1M
20260424T12Z_MSC_GDPS_Rain-Accum6h_Sfc_LatLon0.15_PT198H.grib2 2026-04-24 16:36 2.3M
20260424T12Z_MSC_GDPS_Rain-Accum_Sfc_LatLon0.15_PT198H.grib2 2026-04-24 16:36 4.2M
20260424T12Z_MSC_GDPS_RelativeHumidity_AGL-2m_LatLon0.15_PT198H.grib2 2026-04-24 16:36 1.1M
20260424T12Z_MSC_GDPS_RelativeHumidity_IsbL-0010_LatLon0.15_PT198H.grib2 2026-04-24 16:36 181K
20260424T12Z_MSC_GDPS_RelativeHumidity_IsbL-0020_LatLon0.15_PT198H.grib2 2026-04-24 16:36 147K
20260424T12Z_MSC_GDPS_RelativeHumidity_IsbL-0030_LatLon0.15_PT198H.grib2 2026-04-24 16:36 256K
20260424T12Z_MSC_GDPS_RelativeHumidity_IsbL-0050_LatLon0.15_PT198H.grib2 2026-04-24 16:36 417K
20260424T12Z_MSC_GDPS_RelativeHumidity_IsbL-0100_LatLon0.15_PT198H.grib2 2026-04-24 16:36 489K
20260424T12Z_MSC_GDPS_RelativeHumidity_IsbL-0150_LatLon0.15_PT198H.grib2 2026-04-24 16:36 650K
20260424T12Z_MSC_GDPS_RelativeHumidity_IsbL-0175_LatLon0.15_PT198H.grib2 2026-04-24 16:36 592K
20260424T12Z_MSC_GDPS_RelativeHumidity_IsbL-0200_LatLon0.15_PT198H.grib2 2026-04-24 16:36 707K
20260424T12Z_MSC_GDPS_RelativeHumidity_IsbL-0225_LatLon0.15_PT198H.grib2 2026-04-24 16:36 799K
20260424T12Z_MSC_GDPS_RelativeHumidity_IsbL-0250_LatLon0.15_PT198H.grib2 2026-04-24 16:36 873K
20260424T12Z_MSC_GDPS_RelativeHumidity_IsbL-0275_LatLon0.15_PT198H.grib2 2026-04-24 16:36 889K
20260424T12Z_MSC_GDPS_RelativeHumidity_IsbL-0300_LatLon0.15_PT198H.grib2 2026-04-24 16:36 928K
20260424T12Z_MSC_GDPS_RelativeHumidity_IsbL-0350_LatLon0.15_PT198H.grib2 2026-04-24 16:36 945K
20260424T12Z_MSC_GDPS_RelativeHumidity_IsbL-0400_LatLon0.15_PT198H.grib2 2026-04-24 16:36 967K
20260424T12Z_MSC_GDPS_RelativeHumidity_IsbL-0450_LatLon0.15_PT198H.grib2 2026-04-24 16:36 1.0M
20260424T12Z_MSC_GDPS_RelativeHumidity_IsbL-0500_LatLon0.15_PT198H.grib2 2026-04-24 16:36 1.0M
20260424T12Z_MSC_GDPS_RelativeHumidity_IsbL-0550_LatLon0.15_PT198H.grib2 2026-04-24 16:36 1.0M
20260424T12Z_MSC_GDPS_RelativeHumidity_IsbL-0600_LatLon0.15_PT198H.grib2 2026-04-24 16:36 1.0M
20260424T12Z_MSC_GDPS_RelativeHumidity_IsbL-0650_LatLon0.15_PT198H.grib2 2026-04-24 16:36 1.1M
20260424T12Z_MSC_GDPS_RelativeHumidity_IsbL-0700_LatLon0.15_PT198H.grib2 2026-04-24 16:36 1.1M
20260424T12Z_MSC_GDPS_RelativeHumidity_IsbL-0750_LatLon0.15_PT198H.grib2 2026-04-24 16:36 1.1M
20260424T12Z_MSC_GDPS_RelativeHumidity_IsbL-0800_LatLon0.15_PT198H.grib2 2026-04-24 16:36 1.2M
20260424T12Z_MSC_GDPS_RelativeHumidity_IsbL-0850_LatLon0.15_PT198H.grib2 2026-04-24 16:36 1.3M
20260424T12Z_MSC_GDPS_RelativeHumidity_IsbL-0875_LatLon0.15_PT198H.grib2 2026-04-24 16:36 1.3M
20260424T12Z_MSC_GDPS_RelativeHumidity_IsbL-0900_LatLon0.15_PT198H.grib2 2026-04-24 16:36 1.3M
20260424T12Z_MSC_GDPS_RelativeHumidity_IsbL-0925_LatLon0.15_PT198H.grib2 2026-04-24 16:36 1.2M
20260424T12Z_MSC_GDPS_RelativeHumidity_IsbL-0950_LatLon0.15_PT198H.grib2 2026-04-24 16:36 1.2M
20260424T12Z_MSC_GDPS_RelativeHumidity_IsbL-0970_LatLon0.15_PT198H.grib2 2026-04-24 16:36 1.2M
20260424T12Z_MSC_GDPS_RelativeHumidity_IsbL-0985_LatLon0.15_PT198H.grib2 2026-04-24 16:36 1.2M
20260424T12Z_MSC_GDPS_RelativeHumidity_IsbL-1000_LatLon0.15_PT198H.grib2 2026-04-24 16:36 1.1M
20260424T12Z_MSC_GDPS_RelativeHumidity_IsbL-1015_LatLon0.15_PT198H.grib2 2026-04-24 16:36 1.1M
20260424T12Z_MSC_GDPS_RelativeVorticity_IsbL-0200_LatLon0.15_PT198H.grib2 2026-04-24 16:36 1.2M
20260424T12Z_MSC_GDPS_RelativeVorticity_IsbL-0250_LatLon0.15_PT198H.grib2 2026-04-24 16:36 1.3M
20260424T12Z_MSC_GDPS_RelativeVorticity_IsbL-0500_LatLon0.15_PT198H.grib2 2026-04-24 16:36 1.5M
20260424T12Z_MSC_GDPS_RelativeVorticity_IsbL-0700_LatLon0.15_PT198H.grib2 2026-04-24 16:36 1.3M
20260424T12Z_MSC_GDPS_RelativeVorticity_IsbL-0850_LatLon0.15_PT198H.grib2 2026-04-24 16:36 1.6M
20260424T12Z_MSC_GDPS_Runoff-Accum_Sfc_LatLon0.15_PT198H.grib2 2026-04-24 16:36 128K
20260424T12Z_MSC_GDPS_SensibleHeatNetFlux_Sfc_LatLon0.15_PT198H.grib2 2026-04-24 16:36 467K
20260424T12Z_MSC_GDPS_ShowalterIndex_IsbL-0500_LatLon0.15_PT198H.grib2 2026-04-24 16:36 6.2M
20260424T12Z_MSC_GDPS_Snow-Accum12h_Sfc_LatLon0.15_PT198H.grib2 2026-04-24 16:36 1.3M
20260424T12Z_MSC_GDPS_Snow-Accum24h_Sfc_LatLon0.15_PT198H.grib2 2026-04-24 16:36 1.6M
20260424T12Z_MSC_GDPS_Snow-Accum6h_Sfc_LatLon0.15_PT198H.grib2 2026-04-24 16:36 1.3M
20260424T12Z_MSC_GDPS_Snow-Accum_Sfc_LatLon0.15_PT198H.grib2 2026-04-24 16:36 2.1M
20260424T12Z_MSC_GDPS_SnowDensity_Sfc_LatLon0.15_PT198H.grib2 2026-04-24 16:36 273K
20260424T12Z_MSC_GDPS_SnowDepth_Sfc_LatLon0.15_PT198H.grib2 2026-04-24 16:36 1.8M
20260424T12Z_MSC_GDPS_SoilTemp_DBS-0to10cm_LatLon0.15_PT198H.grib2 2026-04-24 16:36 515K
20260424T12Z_MSC_GDPS_SoilTemp_Sfc_LatLon0.15_PT198H.grib2 2026-04-24 16:36 582K
20260424T12Z_MSC_GDPS_SoilVolumetricIceContent_Sfc_LatLon0.15_PT198H.grib2 2026-04-24 16:36 204K
20260424T12Z_MSC_GDPS_SoilVolumetricWaterContent_DBS-0to10cm_LatLon0.15_PT198H.grib2 2026-04-24 16:36 587K
20260424T12Z_MSC_GDPS_SoilVolumetricWaterContent_DBS-0to1cm_LatLon0.15_PT198H.grib2 2026-04-24 16:36 648K
20260424T12Z_MSC_GDPS_SpecificHumidity_AGL-120m_LatLon0.15_PT198H.grib2 2026-04-24 16:36 1.1M
20260424T12Z_MSC_GDPS_SpecificHumidity_AGL-2m_LatLon0.15_PT198H.grib2 2026-04-24 16:36 1.2M
20260424T12Z_MSC_GDPS_SpecificHumidity_AGL-40m_LatLon0.15_PT198H.grib2 2026-04-24 16:36 1.1M
20260424T12Z_MSC_GDPS_SpecificHumidity_AGL-80m_LatLon0.15_PT198H.grib2 2026-04-24 16:36 1.1M
20260424T12Z_MSC_GDPS_SpecificHumidity_IsbL-0001_LatLon0.15_PT198H.grib2 2026-04-24 16:36 1.1M
20260424T12Z_MSC_GDPS_SpecificHumidity_IsbL-0005_LatLon0.15_PT198H.grib2 2026-04-24 16:36 1.3M
20260424T12Z_MSC_GDPS_SpecificHumidity_IsbL-0010_LatLon0.15_PT198H.grib2 2026-04-24 16:36 1.2M
20260424T12Z_MSC_GDPS_SpecificHumidity_IsbL-0020_LatLon0.15_PT198H.grib2 2026-04-24 16:36 1.5M
20260424T12Z_MSC_GDPS_SpecificHumidity_IsbL-0030_LatLon0.15_PT198H.grib2 2026-04-24 16:36 1.5M
20260424T12Z_MSC_GDPS_SpecificHumidity_IsbL-0050_LatLon0.15_PT198H.grib2 2026-04-24 16:36 1.5M
20260424T12Z_MSC_GDPS_SpecificHumidity_IsbL-0100_LatLon0.15_PT198H.grib2 2026-04-24 16:36 1.3M
20260424T12Z_MSC_GDPS_SpecificHumidity_IsbL-0150_LatLon0.15_PT198H.grib2 2026-04-24 16:36 1.3M
20260424T12Z_MSC_GDPS_SpecificHumidity_IsbL-0175_LatLon0.15_PT198H.grib2 2026-04-24 16:36 1.2M
20260424T12Z_MSC_GDPS_SpecificHumidity_IsbL-0200_LatLon0.15_PT198H.grib2 2026-04-24 16:36 1.3M
20260424T12Z_MSC_GDPS_SpecificHumidity_IsbL-0225_LatLon0.15_PT198H.grib2 2026-04-24 16:36 1.3M
20260424T12Z_MSC_GDPS_SpecificHumidity_IsbL-0250_LatLon0.15_PT198H.grib2 2026-04-24 16:36 1.5M
20260424T12Z_MSC_GDPS_SpecificHumidity_IsbL-0275_LatLon0.15_PT198H.grib2 2026-04-24 16:36 1.3M
20260424T12Z_MSC_GDPS_SpecificHumidity_IsbL-0300_LatLon0.15_PT198H.grib2 2026-04-24 16:36 1.2M
20260424T12Z_MSC_GDPS_SpecificHumidity_IsbL-0350_LatLon0.15_PT198H.grib2 2026-04-24 16:36 1.2M
20260424T12Z_MSC_GDPS_SpecificHumidity_IsbL-0400_LatLon0.15_PT198H.grib2 2026-04-24 16:36 1.4M
20260424T12Z_MSC_GDPS_SpecificHumidity_IsbL-0450_LatLon0.15_PT198H.grib2 2026-04-24 16:36 1.3M
20260424T12Z_MSC_GDPS_SpecificHumidity_IsbL-0500_LatLon0.15_PT198H.grib2 2026-04-24 16:36 1.4M
20260424T12Z_MSC_GDPS_SpecificHumidity_IsbL-0550_LatLon0.15_PT198H.grib2 2026-04-24 16:36 1.6M
20260424T12Z_MSC_GDPS_SpecificHumidity_IsbL-0600_LatLon0.15_PT198H.grib2 2026-04-24 16:36 1.4M
20260424T12Z_MSC_GDPS_SpecificHumidity_IsbL-0650_LatLon0.15_PT198H.grib2 2026-04-24 16:36 1.5M
20260424T12Z_MSC_GDPS_SpecificHumidity_IsbL-0700_LatLon0.15_PT198H.grib2 2026-04-24 16:36 1.6M
20260424T12Z_MSC_GDPS_SpecificHumidity_IsbL-0750_LatLon0.15_PT198H.grib2 2026-04-24 16:36 1.7M
20260424T12Z_MSC_GDPS_SpecificHumidity_IsbL-0800_LatLon0.15_PT198H.grib2 2026-04-24 16:36 1.9M
20260424T12Z_MSC_GDPS_SpecificHumidity_IsbL-0850_LatLon0.15_PT198H.grib2 2026-04-24 16:36 1.9M
20260424T12Z_MSC_GDPS_SpecificHumidity_IsbL-0875_LatLon0.15_PT198H.grib2 2026-04-24 16:36 1.9M
20260424T12Z_MSC_GDPS_SpecificHumidity_IsbL-0900_LatLon0.15_PT198H.grib2 2026-04-24 16:36 1.9M
20260424T12Z_MSC_GDPS_SpecificHumidity_IsbL-0925_LatLon0.15_PT198H.grib2 2026-04-24 16:36 1.6M
20260424T12Z_MSC_GDPS_SpecificHumidity_IsbL-0950_LatLon0.15_PT198H.grib2 2026-04-24 16:36 1.6M
20260424T12Z_MSC_GDPS_SpecificHumidity_IsbL-0970_LatLon0.15_PT198H.grib2 2026-04-24 16:36 1.6M
20260424T12Z_MSC_GDPS_SpecificHumidity_IsbL-0985_LatLon0.15_PT198H.grib2 2026-04-24 16:36 1.5M
20260424T12Z_MSC_GDPS_SpecificHumidity_IsbL-1000_LatLon0.15_PT198H.grib2 2026-04-24 16:36 1.5M
20260424T12Z_MSC_GDPS_SpecificHumidity_IsbL-1015_LatLon0.15_PT198H.grib2 2026-04-24 16:36 1.5M
20260424T12Z_MSC_GDPS_SpecificHumidity_Sfc_LatLon0.15_PT198H.grib2 2026-04-24 16:36 642K
20260424T12Z_MSC_GDPS_Thickness_IsbL-0850to0700_LatLon0.15_PT198H.grib2 2026-04-24 16:36 470K
20260424T12Z_MSC_GDPS_Thickness_IsbL-1000to0500_LatLon0.15_PT198H.grib2 2026-04-24 16:36 376K
20260424T12Z_MSC_GDPS_Thickness_IsbL-1000to0850_LatLon0.15_PT198H.grib2 2026-04-24 16:36 491K
20260424T12Z_MSC_GDPS_TotalCloudCover_Sfc_LatLon0.15_PT198H.grib2 2026-04-24 16:36 823K
20260424T12Z_MSC_GDPS_TotalTotalsIndex_Sfc_LatLon0.15_PT198H.grib2 2026-04-24 16:36 6.2M
20260424T12Z_MSC_GDPS_UVIndex-ClearSky-Max24h_Sfc_LatLon0.15_PT198H.grib2 2026-04-24 16:51 2.2M
20260424T12Z_MSC_GDPS_UVIndex-ClearSky_Sfc_LatLon0.15_PT198H.grib2 2026-04-24 16:51 1.0M
20260424T12Z_MSC_GDPS_UVIndex-Max24h_Sfc_LatLon0.15_PT198H.grib2 2026-04-24 16:51 3.2M
20260424T12Z_MSC_GDPS_UVIndex_Sfc_LatLon0.15_PT198H.grib2 2026-04-24 16:51 1.5M
20260424T12Z_MSC_GDPS_UpwardLongwaveRadiationFlux_NTAtm_LatLon0.15_PT198H.grib2 2026-04-24 16:36 837K
20260424T12Z_MSC_GDPS_VerticalVelocity_IsbL-0200_LatLon0.15_PT198H.grib2 2026-04-24 16:36 928K
20260424T12Z_MSC_GDPS_VerticalVelocity_IsbL-0250_LatLon0.15_PT198H.grib2 2026-04-24 16:36 1.0M
20260424T12Z_MSC_GDPS_VerticalVelocity_IsbL-0500_LatLon0.15_PT198H.grib2 2026-04-24 16:36 1.3M
20260424T12Z_MSC_GDPS_VerticalVelocity_IsbL-0600_LatLon0.15_PT198H.grib2 2026-04-24 16:36 1.1M
20260424T12Z_MSC_GDPS_VerticalVelocity_IsbL-0700_LatLon0.15_PT198H.grib2 2026-04-24 16:36 1.1M
20260424T12Z_MSC_GDPS_VerticalVelocity_IsbL-0850_LatLon0.15_PT198H.grib2 2026-04-24 16:36 1.3M
20260424T12Z_MSC_GDPS_WindChill_Sfc_LatLon0.15_PT198H.grib2 2026-04-24 16:36 5.3M
20260424T12Z_MSC_GDPS_WindDir_AGL-10m_LatLon0.15_PT198H.grib2 2026-04-24 16:36 1.3M
20260424T12Z_MSC_GDPS_WindDir_AGL-120m_LatLon0.15_PT198H.grib2 2026-04-24 16:36 1.4M
20260424T12Z_MSC_GDPS_WindDir_AGL-40m_LatLon0.15_PT198H.grib2 2026-04-24 16:36 1.4M
20260424T12Z_MSC_GDPS_WindDir_AGL-80m_LatLon0.15_PT198H.grib2 2026-04-24 16:36 1.4M
20260424T12Z_MSC_GDPS_WindDir_IsbL-0001_LatLon0.15_PT198H.grib2 2026-04-24 16:36 674K
20260424T12Z_MSC_GDPS_WindDir_IsbL-0005_LatLon0.15_PT198H.grib2 2026-04-24 16:36 804K
20260424T12Z_MSC_GDPS_WindDir_IsbL-0010_LatLon0.15_PT198H.grib2 2026-04-24 16:36 829K
20260424T12Z_MSC_GDPS_WindDir_IsbL-0020_LatLon0.15_PT198H.grib2 2026-04-24 16:36 940K
20260424T12Z_MSC_GDPS_WindDir_IsbL-0030_LatLon0.15_PT198H.grib2 2026-04-24 16:36 920K
20260424T12Z_MSC_GDPS_WindDir_IsbL-0050_LatLon0.15_PT198H.grib2 2026-04-24 16:36 970K
20260424T12Z_MSC_GDPS_WindDir_IsbL-0100_LatLon0.15_PT198H.grib2 2026-04-24 16:36 1.0M
20260424T12Z_MSC_GDPS_WindDir_IsbL-0150_LatLon0.15_PT198H.grib2 2026-04-24 16:36 1.0M
20260424T12Z_MSC_GDPS_WindDir_IsbL-0175_LatLon0.15_PT198H.grib2 2026-04-24 16:36 1.0M
20260424T12Z_MSC_GDPS_WindDir_IsbL-0200_LatLon0.15_PT198H.grib2 2026-04-24 16:36 1.1M
20260424T12Z_MSC_GDPS_WindDir_IsbL-0225_LatLon0.15_PT198H.grib2 2026-04-24 16:36 1.1M
20260424T12Z_MSC_GDPS_WindDir_IsbL-0250_LatLon0.15_PT198H.grib2 2026-04-24 16:36 1.1M
20260424T12Z_MSC_GDPS_WindDir_IsbL-0275_LatLon0.15_PT198H.grib2 2026-04-24 16:36 1.2M
20260424T12Z_MSC_GDPS_WindDir_IsbL-0300_LatLon0.15_PT198H.grib2 2026-04-24 16:36 1.2M
20260424T12Z_MSC_GDPS_WindDir_IsbL-0350_LatLon0.15_PT198H.grib2 2026-04-24 16:36 1.2M
20260424T12Z_MSC_GDPS_WindDir_IsbL-0400_LatLon0.15_PT198H.grib2 2026-04-24 16:36 1.3M
20260424T12Z_MSC_GDPS_WindDir_IsbL-0450_LatLon0.15_PT198H.grib2 2026-04-24 16:36 1.3M
20260424T12Z_MSC_GDPS_WindDir_IsbL-0500_LatLon0.15_PT198H.grib2 2026-04-24 16:36 1.3M
20260424T12Z_MSC_GDPS_WindDir_IsbL-0550_LatLon0.15_PT198H.grib2 2026-04-24 16:36 1.4M
20260424T12Z_MSC_GDPS_WindDir_IsbL-0600_LatLon0.15_PT198H.grib2 2026-04-24 16:36 1.4M
20260424T12Z_MSC_GDPS_WindDir_IsbL-0650_LatLon0.15_PT198H.grib2 2026-04-24 16:36 1.5M
20260424T12Z_MSC_GDPS_WindDir_IsbL-0700_LatLon0.15_PT198H.grib2 2026-04-24 16:36 1.6M
20260424T12Z_MSC_GDPS_WindDir_IsbL-0750_LatLon0.15_PT198H.grib2 2026-04-24 16:36 1.7M
20260424T12Z_MSC_GDPS_WindDir_IsbL-0800_LatLon0.15_PT198H.grib2 2026-04-24 16:36 1.8M
20260424T12Z_MSC_GDPS_WindDir_IsbL-0850_LatLon0.15_PT198H.grib2 2026-04-24 16:36 1.9M
20260424T12Z_MSC_GDPS_WindDir_IsbL-0875_LatLon0.15_PT198H.grib2 2026-04-24 16:36 2.0M
20260424T12Z_MSC_GDPS_WindDir_IsbL-0900_LatLon0.15_PT198H.grib2 2026-04-24 16:36 2.0M
20260424T12Z_MSC_GDPS_WindDir_IsbL-0925_LatLon0.15_PT198H.grib2 2026-04-24 16:36 2.0M
20260424T12Z_MSC_GDPS_WindDir_IsbL-0950_LatLon0.15_PT198H.grib2 2026-04-24 16:36 2.0M
20260424T12Z_MSC_GDPS_WindDir_IsbL-0970_LatLon0.15_PT198H.grib2 2026-04-24 16:36 2.0M
20260424T12Z_MSC_GDPS_WindDir_IsbL-0985_LatLon0.15_PT198H.grib2 2026-04-24 16:36 2.0M
20260424T12Z_MSC_GDPS_WindDir_IsbL-1000_LatLon0.15_PT198H.grib2 2026-04-24 16:36 2.1M
20260424T12Z_MSC_GDPS_WindDir_IsbL-1015_LatLon0.15_PT198H.grib2 2026-04-24 16:36 2.1M
20260424T12Z_MSC_GDPS_WindGust-Max_AGL-10m_LatLon0.15_PT198H.grib2 2026-04-24 16:36 2.2M
20260424T12Z_MSC_GDPS_WindGust-Min_AGL-10m_LatLon0.15_PT198H.grib2 2026-04-24 16:36 2.2M
20260424T12Z_MSC_GDPS_WindGust_AGL-10m_LatLon0.15_PT198H.grib2 2026-04-24 16:36 2.2M
20260424T12Z_MSC_GDPS_WindSpeed_AGL-10m_LatLon0.15_PT198H.grib2 2026-04-24 16:36 1.1M
20260424T12Z_MSC_GDPS_WindSpeed_AGL-120m_LatLon0.15_PT198H.grib2 2026-04-24 16:36 1.2M
20260424T12Z_MSC_GDPS_WindSpeed_AGL-40m_LatLon0.15_PT198H.grib2 2026-04-24 16:36 1.2M
20260424T12Z_MSC_GDPS_WindSpeed_AGL-80m_LatLon0.15_PT198H.grib2 2026-04-24 16:36 1.3M
20260424T12Z_MSC_GDPS_WindSpeed_IsbL-0001_LatLon0.15_PT198H.grib2 2026-04-24 16:36 643K
20260424T12Z_MSC_GDPS_WindSpeed_IsbL-0005_LatLon0.15_PT198H.grib2 2026-04-24 16:36 606K
20260424T12Z_MSC_GDPS_WindSpeed_IsbL-0010_LatLon0.15_PT198H.grib2 2026-04-24 16:36 616K
20260424T12Z_MSC_GDPS_WindSpeed_IsbL-0020_LatLon0.15_PT198H.grib2 2026-04-24 16:36 658K
20260424T12Z_MSC_GDPS_WindSpeed_IsbL-0030_LatLon0.15_PT198H.grib2 2026-04-24 16:36 852K
20260424T12Z_MSC_GDPS_WindSpeed_IsbL-0050_LatLon0.15_PT198H.grib2 2026-04-24 16:36 896K
20260424T12Z_MSC_GDPS_WindSpeed_IsbL-0100_LatLon0.15_PT198H.grib2 2026-04-24 16:36 1.1M
20260424T12Z_MSC_GDPS_WindSpeed_IsbL-0150_LatLon0.15_PT198H.grib2 2026-04-24 16:36 937K
20260424T12Z_MSC_GDPS_WindSpeed_IsbL-0175_LatLon0.15_PT198H.grib2 2026-04-24 16:36 1.0M
20260424T12Z_MSC_GDPS_WindSpeed_IsbL-0200_LatLon0.15_PT198H.grib2 2026-04-24 16:36 1.1M
20260424T12Z_MSC_GDPS_WindSpeed_IsbL-0225_LatLon0.15_PT198H.grib2 2026-04-24 16:36 1.1M
20260424T12Z_MSC_GDPS_WindSpeed_IsbL-0250_LatLon0.15_PT198H.grib2 2026-04-24 16:36 1.1M
20260424T12Z_MSC_GDPS_WindSpeed_IsbL-0275_LatLon0.15_PT198H.grib2 2026-04-24 16:36 1.1M
20260424T12Z_MSC_GDPS_WindSpeed_IsbL-0300_LatLon0.15_PT198H.grib2 2026-04-24 16:36 1.1M
20260424T12Z_MSC_GDPS_WindSpeed_IsbL-0350_LatLon0.15_PT198H.grib2 2026-04-24 16:36 1.1M
20260424T12Z_MSC_GDPS_WindSpeed_IsbL-0400_LatLon0.15_PT198H.grib2 2026-04-24 16:36 1.1M
20260424T12Z_MSC_GDPS_WindSpeed_IsbL-0450_LatLon0.15_PT198H.grib2 2026-04-24 16:36 1.1M
20260424T12Z_MSC_GDPS_WindSpeed_IsbL-0500_LatLon0.15_PT198H.grib2 2026-04-24 16:36 1.1M
20260424T12Z_MSC_GDPS_WindSpeed_IsbL-0550_LatLon0.15_PT198H.grib2 2026-04-24 16:36 1.1M
20260424T12Z_MSC_GDPS_WindSpeed_IsbL-0600_LatLon0.15_PT198H.grib2 2026-04-24 16:36 1.1M
20260424T12Z_MSC_GDPS_WindSpeed_IsbL-0650_LatLon0.15_PT198H.grib2 2026-04-24 16:36 1.2M
20260424T12Z_MSC_GDPS_WindSpeed_IsbL-0700_LatLon0.15_PT198H.grib2 2026-04-24 16:36 1.5M
20260424T12Z_MSC_GDPS_WindSpeed_IsbL-0750_LatLon0.15_PT198H.grib2 2026-04-24 16:36 1.6M
20260424T12Z_MSC_GDPS_WindSpeed_IsbL-0800_LatLon0.15_PT198H.grib2 2026-04-24 16:36 1.8M
20260424T12Z_MSC_GDPS_WindSpeed_IsbL-0850_LatLon0.15_PT198H.grib2 2026-04-24 16:36 1.9M
20260424T12Z_MSC_GDPS_WindSpeed_IsbL-0875_LatLon0.15_PT198H.grib2 2026-04-24 16:36 1.9M
20260424T12Z_MSC_GDPS_WindSpeed_IsbL-0900_LatLon0.15_PT198H.grib2 2026-04-24 16:36 1.9M
20260424T12Z_MSC_GDPS_WindSpeed_IsbL-0925_LatLon0.15_PT198H.grib2 2026-04-24 16:36 1.8M
20260424T12Z_MSC_GDPS_WindSpeed_IsbL-0950_LatLon0.15_PT198H.grib2 2026-04-24 16:36 1.9M
20260424T12Z_MSC_GDPS_WindSpeed_IsbL-0970_LatLon0.15_PT198H.grib2 2026-04-24 16:36 1.9M
20260424T12Z_MSC_GDPS_WindSpeed_IsbL-0985_LatLon0.15_PT198H.grib2 2026-04-24 16:36 1.8M
20260424T12Z_MSC_GDPS_WindSpeed_IsbL-1000_LatLon0.15_PT198H.grib2 2026-04-24 16:36 1.8M
20260424T12Z_MSC_GDPS_WindSpeed_IsbL-1015_LatLon0.15_PT198H.grib2 2026-04-24 16:36 1.8M
20260424T12Z_MSC_GDPS_WindU_AGL-10m_LatLon0.15_PT198H.grib2 2026-04-24 16:36 1.3M
20260424T12Z_MSC_GDPS_WindU_AGL-120m_LatLon0.15_PT198H.grib2 2026-04-24 16:36 1.0M
20260424T12Z_MSC_GDPS_WindU_AGL-40m_LatLon0.15_PT198H.grib2 2026-04-24 16:36 973K
20260424T12Z_MSC_GDPS_WindU_AGL-80m_LatLon0.15_PT198H.grib2 2026-04-24 16:36 1.0M
20260424T12Z_MSC_GDPS_WindU_IsbL-0001_LatLon0.15_PT198H.grib2 2026-04-24 16:36 500K
20260424T12Z_MSC_GDPS_WindU_IsbL-0005_LatLon0.15_PT198H.grib2 2026-04-24 16:36 683K
20260424T12Z_MSC_GDPS_WindU_IsbL-0010_LatLon0.15_PT198H.grib2 2026-04-24 16:36 692K
20260424T12Z_MSC_GDPS_WindU_IsbL-0020_LatLon0.15_PT198H.grib2 2026-04-24 16:36 722K
20260424T12Z_MSC_GDPS_WindU_IsbL-0030_LatLon0.15_PT198H.grib2 2026-04-24 16:36 728K
20260424T12Z_MSC_GDPS_WindU_IsbL-0050_LatLon0.15_PT198H.grib2 2026-04-24 16:36 686K
20260424T12Z_MSC_GDPS_WindU_IsbL-0100_LatLon0.15_PT198H.grib2 2026-04-24 16:36 915K
20260424T12Z_MSC_GDPS_WindU_IsbL-0150_LatLon0.15_PT198H.grib2 2026-04-24 16:36 1.0M
20260424T12Z_MSC_GDPS_WindU_IsbL-0175_LatLon0.15_PT198H.grib2 2026-04-24 16:36 1.0M
20260424T12Z_MSC_GDPS_WindU_IsbL-0200_LatLon0.15_PT198H.grib2 2026-04-24 16:36 1.0M
20260424T12Z_MSC_GDPS_WindU_IsbL-0225_LatLon0.15_PT198H.grib2 2026-04-24 16:36 852K
20260424T12Z_MSC_GDPS_WindU_IsbL-0250_LatLon0.15_PT198H.grib2 2026-04-24 16:36 854K
20260424T12Z_MSC_GDPS_WindU_IsbL-0275_LatLon0.15_PT198H.grib2 2026-04-24 16:36 880K
20260424T12Z_MSC_GDPS_WindU_IsbL-0300_LatLon0.15_PT198H.grib2 2026-04-24 16:36 870K
20260424T12Z_MSC_GDPS_WindU_IsbL-0350_LatLon0.15_PT198H.grib2 2026-04-24 16:36 884K
20260424T12Z_MSC_GDPS_WindU_IsbL-0400_LatLon0.15_PT198H.grib2 2026-04-24 16:36 1.1M
20260424T12Z_MSC_GDPS_WindU_IsbL-0450_LatLon0.15_PT198H.grib2 2026-04-24 16:36 1.1M
20260424T12Z_MSC_GDPS_WindU_IsbL-0500_LatLon0.15_PT198H.grib2 2026-04-24 16:36 1.1M
20260424T12Z_MSC_GDPS_WindU_IsbL-0550_LatLon0.15_PT198H.grib2 2026-04-24 16:36 1.1M
20260424T12Z_MSC_GDPS_WindU_IsbL-0600_LatLon0.15_PT198H.grib2 2026-04-24 16:36 1.2M
20260424T12Z_MSC_GDPS_WindU_IsbL-0650_LatLon0.15_PT198H.grib2 2026-04-24 16:36 1.2M
20260424T12Z_MSC_GDPS_WindU_IsbL-0700_LatLon0.15_PT198H.grib2 2026-04-24 16:36 1.2M
20260424T12Z_MSC_GDPS_WindU_IsbL-0750_LatLon0.15_PT198H.grib2 2026-04-24 16:36 1.3M
20260424T12Z_MSC_GDPS_WindU_IsbL-0800_LatLon0.15_PT198H.grib2 2026-04-24 16:36 1.4M
20260424T12Z_MSC_GDPS_WindU_IsbL-0850_LatLon0.15_PT198H.grib2 2026-04-24 16:36 1.4M
20260424T12Z_MSC_GDPS_WindU_IsbL-0875_LatLon0.15_PT198H.grib2 2026-04-24 16:36 1.5M
20260424T12Z_MSC_GDPS_WindU_IsbL-0900_LatLon0.15_PT198H.grib2 2026-04-24 16:36 1.5M
20260424T12Z_MSC_GDPS_WindU_IsbL-0925_LatLon0.15_PT198H.grib2 2026-04-24 16:36 1.5M
20260424T12Z_MSC_GDPS_WindU_IsbL-0950_LatLon0.15_PT198H.grib2 2026-04-24 16:36 1.4M
20260424T12Z_MSC_GDPS_WindU_IsbL-0970_LatLon0.15_PT198H.grib2 2026-04-24 16:36 1.4M
20260424T12Z_MSC_GDPS_WindU_IsbL-0985_LatLon0.15_PT198H.grib2 2026-04-24 16:36 1.4M
20260424T12Z_MSC_GDPS_WindU_IsbL-1000_LatLon0.15_PT198H.grib2 2026-04-24 16:36 1.4M
20260424T12Z_MSC_GDPS_WindU_IsbL-1015_LatLon0.15_PT198H.grib2 2026-04-24 16:36 1.3M
20260424T12Z_MSC_GDPS_WindV_AGL-10m_LatLon0.15_PT198H.grib2 2026-04-24 16:36 1.6M
20260424T12Z_MSC_GDPS_WindV_AGL-120m_LatLon0.15_PT198H.grib2 2026-04-24 16:36 1.0M
20260424T12Z_MSC_GDPS_WindV_AGL-40m_LatLon0.15_PT198H.grib2 2026-04-24 16:36 972K
20260424T12Z_MSC_GDPS_WindV_AGL-80m_LatLon0.15_PT198H.grib2 2026-04-24 16:36 1.0M
20260424T12Z_MSC_GDPS_WindV_IsbL-0001_LatLon0.15_PT198H.grib2 2026-04-24 16:36 671K
20260424T12Z_MSC_GDPS_WindV_IsbL-0005_LatLon0.15_PT198H.grib2 2026-04-24 16:36 755K
20260424T12Z_MSC_GDPS_WindV_IsbL-0010_LatLon0.15_PT198H.grib2 2026-04-24 16:36 783K
20260424T12Z_MSC_GDPS_WindV_IsbL-0020_LatLon0.15_PT198H.grib2 2026-04-24 16:36 840K
20260424T12Z_MSC_GDPS_WindV_IsbL-0030_LatLon0.15_PT198H.grib2 2026-04-24 16:36 842K
20260424T12Z_MSC_GDPS_WindV_IsbL-0050_LatLon0.15_PT198H.grib2 2026-04-24 16:36 894K
20260424T12Z_MSC_GDPS_WindV_IsbL-0100_LatLon0.15_PT198H.grib2 2026-04-24 16:36 1.0M
20260424T12Z_MSC_GDPS_WindV_IsbL-0150_LatLon0.15_PT198H.grib2 2026-04-24 16:36 925K
20260424T12Z_MSC_GDPS_WindV_IsbL-0175_LatLon0.15_PT198H.grib2 2026-04-24 16:36 1.0M
20260424T12Z_MSC_GDPS_WindV_IsbL-0200_LatLon0.15_PT198H.grib2 2026-04-24 16:36 1.0M
20260424T12Z_MSC_GDPS_WindV_IsbL-0225_LatLon0.15_PT198H.grib2 2026-04-24 16:36 849K
20260424T12Z_MSC_GDPS_WindV_IsbL-0250_LatLon0.15_PT198H.grib2 2026-04-24 16:36 849K
20260424T12Z_MSC_GDPS_WindV_IsbL-0275_LatLon0.15_PT198H.grib2 2026-04-24 16:36 874K
20260424T12Z_MSC_GDPS_WindV_IsbL-0300_LatLon0.15_PT198H.grib2 2026-04-24 16:36 861K
20260424T12Z_MSC_GDPS_WindV_IsbL-0350_LatLon0.15_PT198H.grib2 2026-04-24 16:36 871K
20260424T12Z_MSC_GDPS_WindV_IsbL-0400_LatLon0.15_PT198H.grib2 2026-04-24 16:36 874K
20260424T12Z_MSC_GDPS_WindV_IsbL-0450_LatLon0.15_PT198H.grib2 2026-04-24 16:36 1.1M
20260424T12Z_MSC_GDPS_WindV_IsbL-0500_LatLon0.15_PT198H.grib2 2026-04-24 16:36 1.1M
20260424T12Z_MSC_GDPS_WindV_IsbL-0550_LatLon0.15_PT198H.grib2 2026-04-24 16:36 1.1M
20260424T12Z_MSC_GDPS_WindV_IsbL-0600_LatLon0.15_PT198H.grib2 2026-04-24 16:36 1.1M
20260424T12Z_MSC_GDPS_WindV_IsbL-0650_LatLon0.15_PT198H.grib2 2026-04-24 16:36 1.2M
20260424T12Z_MSC_GDPS_WindV_IsbL-0700_LatLon0.15_PT198H.grib2 2026-04-24 16:36 1.2M
20260424T12Z_MSC_GDPS_WindV_IsbL-0750_LatLon0.15_PT198H.grib2 2026-04-24 16:36 1.3M
20260424T12Z_MSC_GDPS_WindV_IsbL-0800_LatLon0.15_PT198H.grib2 2026-04-24 16:36 1.3M
20260424T12Z_MSC_GDPS_WindV_IsbL-0850_LatLon0.15_PT198H.grib2 2026-04-24 16:36 1.4M
20260424T12Z_MSC_GDPS_WindV_IsbL-0875_LatLon0.15_PT198H.grib2 2026-04-24 16:36 1.4M
20260424T12Z_MSC_GDPS_WindV_IsbL-0900_LatLon0.15_PT198H.grib2 2026-04-24 16:36 1.5M
20260424T12Z_MSC_GDPS_WindV_IsbL-0925_LatLon0.15_PT198H.grib2 2026-04-24 16:36 1.5M
20260424T12Z_MSC_GDPS_WindV_IsbL-0950_LatLon0.15_PT198H.grib2 2026-04-24 16:36 1.4M
20260424T12Z_MSC_GDPS_WindV_IsbL-0970_LatLon0.15_PT198H.grib2 2026-04-24 16:36 1.4M
20260424T12Z_MSC_GDPS_WindV_IsbL-0985_LatLon0.15_PT198H.grib2 2026-04-24 16:36 1.4M
20260424T12Z_MSC_GDPS_WindV_IsbL-1000_LatLon0.15_PT198H.grib2 2026-04-24 16:36 1.4M
20260424T12Z_MSC_GDPS_WindV_IsbL-1015_LatLon0.15_PT198H.grib2 2026-04-24 16:36 1.6M